SWR29F EDDB-EDDH

Flight info

Callsign SWR29F
Flight time 0h 32m
Altitude 22000
Route SUKIP3A/24R SUKIP M748 RARUP RARUP3P
Aircraft A320/M-SDE3FGHIRWY/LB1

Departure

Time 2026-05-03 20:45
Airport Berlin Brandenburg Airport (EDDB)

Arrival

Time 2026-05-03 21:17
Airport Hamburg Helmut Schmidt Airport (EDDH)
Time Latitude Longitude Altitude Speed Heading
2026-05-03 20:21 52.36542 13.50497 155 ft 0 kts 69°
2026-05-03 20:22 52.36541 13.50496 155 ft 0 kts 69°
2026-05-03 20:35 52.36540 13.50493 155 ft 1 kts 69°
2026-05-03 20:35 52.36534 13.50466 154 ft 3 kts 69°
2026-05-03 20:35 52.36527 13.50435 154 ft 3 kts 69°
2026-05-03 20:36 52.36520 13.50405 154 ft 3 kts 78°
2026-05-03 20:36 52.36519 13.50374 153 ft 3 kts 109°
2026-05-03 20:36 52.36528 13.50349 153 ft 2 kts 150°
2026-05-03 20:36 52.36533 13.50344 153 ft 0 kts 159°
2026-05-03 20:40 52.36485 13.50375 153 ft 18 kts 158°
2026-05-03 20:40 52.36361 13.50455 153 ft 21 kts 159°
2026-05-03 20:40 52.36213 13.50549 153 ft 24 kts 158°
2026-05-03 20:41 52.36045 13.50654 153 ft 27 kts 159°
2026-05-03 20:41 52.35870 13.50766 153 ft 27 kts 158°
2026-05-03 20:41 52.35725 13.50835 151 ft 9 kts 182°
2026-05-03 20:41 52.35674 13.50810 151 ft 7 kts 211°
2026-05-03 20:42 52.35641 13.50771 152 ft 5 kts 218°
2026-05-03 20:42 52.35624 13.50749 152 ft 1 kts 219°
2026-05-03 20:42 52.35623 13.50747 152 ft 0 kts 218°
2026-05-03 20:43 52.35623 13.50746 152 ft 1 kts 218°
2026-05-03 20:43 52.35567 13.50673 154 ft 18 kts 218°
2026-05-03 20:43 52.35466 13.50542 157 ft 19 kts 219°
2026-05-03 20:43 52.35386 13.50388 157 ft 19 kts 249°
2026-05-03 20:44 52.35336 13.50166 156 ft 26 kts 248°
2026-05-03 20:44 52.35180 13.49521 159 ft 95 kts 249°
2026-05-03 20:44 52.34871 13.48206 160 ft 150 kts 249°
2026-05-03 20:44 52.34452 13.46448 452 ft 170 kts 249°
2026-05-03 20:45 52.34001 13.44669 1149 ft 170 kts 241°
2026-05-03 20:45 52.33283 13.43061 1627 ft 186 kts 228°
2026-05-03 20:45 52.32334 13.41459 1940 ft 207 kts 226°
2026-05-03 20:45 52.31270 13.39689 2398 ft 222 kts 226°
2026-05-03 20:46 52.30218 13.37840 3288 ft 223 kts 227°
2026-05-03 20:46 52.29179 13.35933 4118 ft 224 kts 227°
2026-05-03 20:46 52.28153 13.34013 4995 ft 226 kts 227°
2026-05-03 20:46 52.27100 13.32069 5761 ft 231 kts 226°
2026-05-03 20:47 52.26006 13.30129 6553 ft 233 kts 226°
2026-05-03 20:47 52.24911 13.28157 7359 ft 236 kts 228°
2026-05-03 20:47 52.24074 13.25830 8019 ft 248 kts 248°
2026-05-03 20:47 52.23479 13.23064 8380 ft 269 kts 247°
2026-05-03 20:48 52.22753 13.20181 9023 ft 277 kts 245°
2026-05-03 20:48 52.21982 13.17273 9792 ft 281 kts 245°
2026-05-03 20:48 52.21256 13.14266 10380 ft 295 kts 255°
2026-05-03 20:48 52.21148 13.10797 10602 ft 323 kts 277°
2026-05-03 20:49 52.21977 13.07235 10773 ft 352 kts 296°
2026-05-03 20:49 52.23253 13.03666 10896 ft 375 kts 297°
2026-05-03 20:49 52.24105 13.01339 11023 ft 386 kts 297°
2026-05-03 20:49 52.25642 12.97177 11595 ft 393 kts 297°
2026-05-03 20:50 52.26586 12.94626 12028 ft 395 kts 297°
2026-05-03 20:50 52.28001 12.90795 12721 ft 396 kts 297°
2026-05-03 20:50 52.29440 12.86921 13358 ft 400 kts 300°
2026-05-03 20:50 52.31158 12.83398 13921 ft 406 kts 306°
2026-05-03 20:51 52.32991 12.79854 14483 ft 410 kts 306°
2026-05-03 20:51 52.34851 12.76285 15032 ft 413 kts 307°
2026-05-03 20:51 52.36722 12.72704 15549 ft 416 kts 307°
2026-05-03 20:51 52.38611 12.69086 16065 ft 419 kts 307°
2026-05-03 20:52 52.40508 12.65445 16555 ft 422 kts 307°
2026-05-03 20:52 52.42419 12.61766 17016 ft 425 kts 307°
2026-05-03 20:52 52.44337 12.58059 17468 ft 428 kts 307°
2026-05-03 20:52 52.46264 12.54323 17908 ft 431 kts 307°
2026-05-03 20:53 52.48207 12.50547 18332 ft 433 kts 307°
2026-05-03 20:53 52.50155 12.46762 18744 ft 436 kts 307°
2026-05-03 20:53 52.52119 12.42939 19149 ft 438 kts 307°
2026-05-03 20:53 52.54086 12.39106 19527 ft 440 kts 307°
2026-05-03 20:54 52.56060 12.35256 19893 ft 442 kts 307°
2026-05-03 20:54 52.60031 12.27490 20569 ft 446 kts 307°
2026-05-03 20:54 52.62037 12.23552 20880 ft 449 kts 307°
2026-05-03 20:55 52.64042 12.19608 21184 ft 450 kts 307°
2026-05-03 20:55 52.66054 12.15645 21488 ft 453 kts 307°
2026-05-03 20:55 52.68075 12.11657 21790 ft 454 kts 307°
2026-05-03 20:55 52.70105 12.07652 21902 ft 457 kts 307°
2026-05-03 20:56 52.72155 12.03607 21918 ft 460 kts 307°
2026-05-03 20:56 52.73873 12.00209 21915 ft 461 kts 307°
2026-05-03 20:56 52.75924 11.96147 21914 ft 461 kts 307°
2026-05-03 20:56 52.77978 11.92067 21915 ft 461 kts 306°
2026-05-03 20:57 52.79998 11.88047 21917 ft 461 kts 306°
2026-05-03 20:57 52.82074 11.83910 21918 ft 461 kts 306°
2026-05-03 20:57 52.84120 11.79826 21917 ft 461 kts 306°
2026-05-03 20:57 52.86161 11.75744 21914 ft 461 kts 306°
2026-05-03 20:58 52.88206 11.71650 21918 ft 461 kts 306°
2026-05-03 20:58 52.90225 11.67601 21910 ft 461 kts 306°
2026-05-03 20:58 52.92292 11.63452 21912 ft 462 kts 306°
2026-05-03 20:58 52.94335 11.59346 21911 ft 462 kts 306°
2026-05-03 20:59 52.96374 11.55247 21911 ft 462 kts 306°
2026-05-03 20:59 52.98421 11.51117 21911 ft 462 kts 306°
2026-05-03 20:59 53.00456 11.46996 21913 ft 462 kts 306°
2026-05-03 20:59 53.02489 11.42874 21912 ft 462 kts 306°
2026-05-03 21:00 53.04564 11.38783 21906 ft 463 kts 310°
2026-05-03 21:00 53.06093 11.36301 21904 ft 466 kts 315°
2026-05-03 21:00 53.09470 11.31856 21696 ft 467 kts 319°
2026-05-03 21:00 53.12062 11.28526 21449 ft 465 kts 319°
2026-05-03 21:01 53.14654 11.25325 21196 ft 460 kts 321°
2026-05-03 21:01 53.17230 11.22323 20944 ft 443 kts 322°
2026-05-03 21:01 53.19680 11.19572 20450 ft 435 kts 322°
2026-05-03 21:01 53.22216 11.16752 19843 ft 429 kts 322°
2026-05-03 21:02 53.24681 11.13988 19253 ft 425 kts 322°
2026-05-03 21:02 53.27108 11.11222 18642 ft 420 kts 321°
2026-05-03 21:02 53.29398 11.08572 18068 ft 417 kts 321°
2026-05-03 21:02 53.31762 11.05815 17466 ft 414 kts 321°
2026-05-03 21:03 53.34115 11.03063 16866 ft 411 kts 320°
2026-05-03 21:03 53.36449 11.00333 16266 ft 409 kts 320°
2026-05-03 21:03 53.38776 10.97610 15660 ft 407 kts 320°
2026-05-03 21:03 53.41075 10.94918 15067 ft 405 kts 320°
2026-05-03 21:04 53.43556 10.92529 14464 ft 424 kts 334°
2026-05-03 21:04 53.46440 10.91234 13865 ft 431 kts 344°
2026-05-03 21:04 53.49374 10.90236 13265 ft 430 kts 345°
2026-05-03 21:04 53.52296 10.89254 12662 ft 427 kts 345°
2026-05-03 21:05 53.55158 10.88304 12072 ft 422 kts 345°
2026-05-03 21:05 53.58019 10.87365 11463 ft 412 kts 345°
2026-05-03 21:05 53.60761 10.86484 10865 ft 391 kts 345°
2026-05-03 21:05 53.63361 10.85651 10264 ft 373 kts 345°
2026-05-03 21:06 53.65860 10.84844 9670 ft 358 kts 345°
2026-05-03 21:06 53.68263 10.84059 9068 ft 345 kts 345°
2026-05-03 21:06 53.70567 10.83235 8460 ft 332 kts 337°
2026-05-03 21:06 53.72516 10.81463 7868 ft 310 kts 313°
2026-05-03 21:07 53.73974 10.78924 7266 ft 297 kts 306°
2026-05-03 21:07 53.75315 10.76330 6664 ft 290 kts 304°
2026-05-03 21:07 53.76615 10.73793 6208 ft 279 kts 304°
2026-05-03 21:07 53.77870 10.71346 5934 ft 272 kts 304°
2026-05-03 21:08 53.79097 10.68954 5656 ft 266 kts 304°
2026-05-03 21:08 53.80299 10.66612 5376 ft 260 kts 305°
2026-05-03 21:08 53.81403 10.64259 5102 ft 249 kts 292°
2026-05-03 21:08 53.81815 10.61570 4837 ft 231 kts 266°
2026-05-03 21:09 53.81878 10.58900 4553 ft 226 kts 271°
2026-05-03 21:09 53.82065 10.56307 4279 ft 222 kts 272°
2026-05-03 21:09 53.82269 10.53697 4060 ft 219 kts 273°
2026-05-03 21:09 53.82406 10.51164 3998 ft 219 kts 269°
2026-05-03 21:10 53.82460 10.48589 4012 ft 219 kts 268°
2026-05-03 21:10 53.82505 10.46042 4015 ft 220 kts 267°
2026-05-03 21:10 53.82527 10.43464 4014 ft 218 kts 264°
2026-05-03 21:10 53.82361 10.40933 4008 ft 215 kts 257°
2026-05-03 21:11 53.82073 10.38480 4007 ft 209 kts 253°
2026-05-03 21:11 53.81423 10.36358 4003 ft 205 kts 233°
2026-05-03 21:11 53.80518 10.34507 4014 ft 204 kts 233°
2026-05-03 21:11 53.79619 10.32662 4018 ft 202 kts 233°
2026-05-03 21:12 53.78728 10.30832 4022 ft 203 kts 233°
2026-05-03 21:12 53.77834 10.28996 4021 ft 204 kts 233°
2026-05-03 21:12 53.76931 10.27144 3982 ft 206 kts 233°
2026-05-03 21:12 53.76175 10.25594 3832 ft 204 kts 233°
2026-05-03 21:13 53.75273 10.23748 3582 ft 201 kts 233°
2026-05-03 21:13 53.74392 10.21947 3330 ft 197 kts 233°
2026-05-03 21:13 53.73528 10.20181 3081 ft 194 kts 234°
2026-05-03 21:13 53.72675 10.18438 2813 ft 190 kts 234°
2026-05-03 21:14 53.71854 10.16764 2569 ft 181 kts 233°
2026-05-03 21:14 53.71061 10.15144 2368 ft 178 kts 233°
2026-05-03 21:14 53.70277 10.13545 2105 ft 177 kts 233°
2026-05-03 21:14 53.69471 10.11899 1860 ft 185 kts 232°
2026-05-03 21:15 53.68683 10.10297 1622 ft 170 kts 232°
2026-05-03 21:15 53.67961 10.08830 1400 ft 154 kts 232°
2026-05-03 21:15 53.67312 10.07510 1220 ft 140 kts 232°
2026-05-03 21:15 53.66711 10.06287 1036 ft 133 kts 232°
2026-05-03 21:16 53.66125 10.05096 859 ft 131 kts 232°
2026-05-03 21:16 53.65544 10.03915 685 ft 130 kts 232°
2026-05-03 21:16 53.64966 10.02741 511 ft 131 kts 232°
2026-05-03 21:16 53.64378 10.01547 354 ft 131 kts 233°
2026-05-03 21:17 53.63797 10.00375 172 ft 132 kts 232°
2026-05-03 21:17 53.63416 9.99589 49 ft 127 kts 232°
2026-05-03 21:17 53.62930 9.98609 45 ft 33 kts 225°
2026-05-03 21:17 53.62777 9.98482 44 ft 14 kts 190°
2026-05-03 21:18 53.62744 9.98477 45 ft 0 kts 180°
2026-05-03 21:19 53.62738 9.98477 45 ft 6 kts 180°
2026-05-03 21:19 53.62639 9.98505 47 ft 23 kts 156°
2026-05-03 21:19 53.62513 9.98659 47 ft 21 kts 102°
2026-05-03 21:19 53.62541 9.98875 47 ft 17 kts 78°
2026-05-03 21:20 53.62561 9.99051 47 ft 13 kts 79°
2026-05-03 21:20 53.62577 9.99186 47 ft 10 kts 79°
2026-05-03 21:20 53.62587 9.99280 47 ft 7 kts 79°
2026-05-03 21:20 53.62593 9.99340 47 ft 4 kts 83°
2026-05-03 21:21 53.62594 9.99362 47 ft 1 kts 84°
2026-05-03 21:21 53.62601 9.99442 46 ft 15 kts 79°
2026-05-03 21:21 53.62630 9.99652 47 ft 18 kts 75°
2026-05-03 21:21 53.62671 9.99823 43 ft 14 kts 47°
2026-05-03 21:22 53.62743 9.99906 46 ft 11 kts 30°
2026-05-03 21:22 53.62795 9.99952 46 ft 6 kts 26°
2026-05-03 21:22 53.62821 9.99974 48 ft 6 kts 28°
2026-05-03 21:22 53.62873 10.00038 47 ft 12 kts 39°
2026-05-03 21:23 53.62934 10.00116 48 ft 9 kts 35°
2026-05-03 21:23 53.62976 10.00164 46 ft 6 kts 33°
2026-05-03 21:23 53.62999 10.00189 48 ft 2 kts 33°
2026-05-03 21:23 53.63004 10.00195 48 ft 0 kts 32°
2026-05-03 21:24 53.63011 10.00205 46 ft 4 kts 43°
2026-05-03 21:25 53.63017 10.00250 48 ft 4 kts 92°
2026-05-03 21:25 53.63008 10.00297 46 ft 4 kts 112°
2026-05-03 21:25 53.62996 10.00345 45 ft 4 kts 112°
2026-05-03 21:25 53.62990 10.00371 48 ft 0 kts 112°